TOURFACTS.DK  
Stats and Facts from Tour de France.

Tour de France 2019 starts in 354 days
  Riders   Stages   Teams   Summits   Yearly  


 
Search by year

After 2018 - Stage 9:
 15000 starters.
  5163 different riders.
  639 teams.
  2241 stages.
  456 restdays.
  441138.60 km.
  5662 abandonnees.


Top 3
GC
Christopher Froome86:20:55
Rigoberto Urán86:21:49
Romain Bardet86:23:15
Climb
Warren Barguil169 pt.
Primoz Roglic80 pt.
Thomas De Gendt64 pt.
Sprint
Michael Matthews359 pt.
André Greipel234 pt.
Edvald Boasson Hagen220 pt.
Youth
Simon Yates86:27:09
Louis Meintjes86:29:15
Emanuel Buchmann86:54:16
Facts from Tour de France 1950
  |   Stages.  |   Stage winners.  |   Days in yellow  |   Average speed.  |   Route.  |   Teams.  |   All riders.  |   Rookies.  |  

  |   Withdrawls.  |   GC.  |   Polka  |   Green  |   White  |   Summits. (In tour)  |   Miscellaneous.  |  

Stage 11 on July 25th. 1950
         Owning:    Roger Queugnet    
Pick a stage:  1 2 3 4 5 6 7 8 9 10 11 12 13 14 15 16 17 18 19 20 21 22
  PauSaint-Gaudens | Dist: 230.00 km.
Cat: 1Col de l'AubisqueFRAJean Robic
10 points
 
Cat: 1Col du TourmaletFRAKléber Piot
10 points
 
Cat: 2Col d'AspinFRAKléber Piot
6 points
 

Average speed for all riders in stage:  29,575 km./hr.
    Place:Name:Team:Time:Km/h:
ITAGino BartaliITAItaly07:28:17  +  00:00:00=30,784 
FRALouison BobetFRAFrance07:28:17  +  00:00:00=30,784 
BELStan OckersBELBelgium07:28:17  +  00:00:00=30,784 
4 FRARaphaël GeminianiFRAFrance07:28:17  +  00:00:00=30,784 
5 FRAAndré BruléFRAIle De France-North East07:28:17  +  00:00:00=30,784 
6 LUXJean KirchenLUXLuxembourg07:28:17  +  00:00:00=30,784 
7 FRAKléber PiotFRAIle De France-North East07:28:17  +  00:00:00=30,784 
8 FRAPierre CoganFRACenter-South West07:28:17  +  00:00:00=30,784 
9 ITAVittorio MagniITAItaly07:28:17  +  00:00:00=30,784 
10 BELMarcel De MulderBELAiglons Belges07:31:11  +  00:02:54=30,586 
11 LUXJean DiederichLUXLuxembourg07:31:11  +  00:02:54=30,586 
12 SUIFerdi KüblerCHESwitzerland07:31:11  +  00:02:54=30,586 
13 BELMarcel DupontBELBelgium07:31:11  +  00:02:54=30,586 
14 FRAJean RobicFRAWest07:32:16  +  00:03:59=30,513 
15 SUIPierre BrambillaFRASouth-East07:37:43  +  00:09:26=30,150 
16 ITANello LaurediFRAFrance07:37:59  +  00:09:42=30,132 
17 ITAValerio BoniniITACadetti Italiens07:38:31  +  00:10:14=30,097 
18 FRARobert CastelinFRASouth-East07:38:31  +  00:10:14=30,097 
19 MEXAttilio LambertiniITAItaly07:38:31  +  00:10:14=30,097 
20 FRAAlain MoineauFRACenter-South West07:38:31  +  00:10:14=30,097 
21 ITAAlfredo PasottiITACadetti Italiens07:38:31  +  00:10:14=30,097 
22 ITAAttilio RedolfiFRAIle De France-North East07:38:31  +  00:10:14=30,097 
23 LUXJean GoldschmitLUXLuxembourg07:38:31  +  00:10:14=30,097 
24 LUXWilly KempLUXLuxembourg07:38:31  +  00:10:14=30,097 
25 FRAJean-Apotre LazaridesFRAFrance07:38:46  +  00:10:29=30,081 
26 LUXMarcel ErnzerLUXLuxembourg07:39:56  +  00:11:39=30,004 
27 FRAArmand DarnauguilhemFRACenter-South West07:39:58  +  00:11:41=30,002 
28 BELArmand BaeyensBELAiglons Belges07:40:05  +  00:11:48=29,995 
29 ITAGiovanni CorrieriITAItaly07:40:43  +  00:12:26=29,953 
30 BELRaymond ImpanisBELBelgium07:40:43  +  00:12:26=29,953 
31 ITASylvio PedroniITAItaly07:40:43  +  00:12:26=29,953 
32 ITAAngelo BrignoleITAItaly07:40:43  +  00:12:26=29,953 
33 BELAlbert DubuissonBELAiglons Belges07:40:43  +  00:12:26=29,953 
34 ITASerifano BiagioniITAItaly07:40:43  +  00:12:26=29,953 
35 BELMarcel VerschuerenBELAiglons Belges07:40:43  +  00:12:26=29,953 
36 ITAVirgilio SalimbeniITAItaly07:40:43  +  00:12:26=29,953 
37 FRARobert DesbatsFRAFrance07:40:43  +  00:12:26=29,953 
38 BELRoger LambrechtBELBelgium07:42:02  +  00:13:45=29,868 
39 FRAPaul GiguetFRAFrance07:42:02  +  00:13:45=29,868 
40 BELBriek SchotteBELBelgium07:42:02  +  00:13:45=29,868 
41 SUIGeorges AeschlimannCHESwitzerland07:42:02  +  00:13:45=29,868 
42 FRAGeorges MeunierFRACenter-South West07:42:02  +  00:13:45=29,868 
43 NEDWim De RuyterNLDHolland07:42:02  +  00:13:45=29,868 
44 FRAJean-Marie GoasmatFRAWest07:42:02  +  00:13:45=29,868 
45 SUIEmilio Croci TortiCHESwitzerland07:42:02  +  00:13:45=29,868 
46 ITAGino SciardisFRAWest07:43:11  +  00:14:54=29,794 
47 ITAAdolfo LeoniITACadetti Italiens07:45:06  +  00:16:49=29,671 
48 ITAGiulio BresciITACadetti Italiens07:45:06  +  00:16:49=29,671 
49 MARCustodio Dos ReisNAFNorth Africa07:45:13  +  00:16:56=29,664 
50 FRARoger CretonFRAWest07:45:19  +  00:17:02=29,657 
51 ALGAhmed KebaïliNAFNorth Africa07:46:45  +  00:18:28=29,566 
52 FRAHervé ProuzetFRACenter-South West07:49:31  +  00:21:14=29,392 
53 FRABernard GauthierFRASouth-East07:49:33  +  00:21:16=29,390 
54 SUIFritz ZbindenCHESwitzerland07:49:36  +  00:21:19=29,387 
55 ITANello SforacchiFRAIle De France-North East07:52:13  +  00:23:56=29,224 
56 FRAPierre MolinerisFRAFrance07:52:21  +  00:24:04=29,216 
57 FRAMaurice KallertFRASouth-East07:52:24  +  00:24:07=29,213 
58 ALGMarcel ZelascoNAFNorth Africa07:52:24  +  00:24:07=29,213 
59 FRADominique ForliniFRAParis07:52:24  +  00:24:07=29,213 
60 ALGAbdel-Kader ZaafNAFNorth Africa07:52:24  +  00:24:07=29,213 
61 FRARaoul RemyFRASouth-East07:52:24  +  00:24:07=29,213 
62 BELJoseph VerhaertBELBelgium07:52:24  +  00:24:07=29,213 
63 ITAAlberto GhirardiITACadetti Italiens07:52:24  +  00:24:07=29,213 
64 LUXHenri KellenLUXLuxembourg07:52:59  +  00:24:42=29,177 
65 POLAntoine FrankowskiFRAParis07:57:43  +  00:29:26=28,887 
66 ITARemo SabattiniITACadetti Italiens07:57:43  +  00:29:26=28,887 
67 FRAJean BaldassariFRAParis07:57:50  +  00:29:33=28,880 
68 SUIGottfried WeilenmannCHESwitzerland07:57:50  +  00:29:33=28,880 
69 BELJan StormsBELAiglons Belges07:57:50  +  00:29:33=28,880 
70 FRAGilbert BauvinFRAIle De France-North East07:57:54  +  00:29:37=28,876 
71 FRAEmile BaffertFRAFrance07:57:54  +  00:29:37=28,876 
72 FRAMarcel DussaultFRACenter-South West07:57:54  +  00:29:37=28,876 
73 FRAJosé BeyaertFRAParis07:59:42  +  00:31:25=28,768 
74 FRAAntonin RollandFRASouth-East07:59:42  +  00:31:25=28,768 
75 FRARobert BonnaventureFRAWest07:59:42  +  00:31:25=28,768 
76 FRASerge BlussonFRAParis07:59:42  +  00:31:25=28,768 
77 FRARoger ChupinFRAWest07:59:42  +  00:31:25=28,768 
78 FRAMaurice De MuerFRAIle De France-North East07:59:42  +  00:31:25=28,768 
79 FRARoger QueugnetFRAIle De France-North East07:59:42  +  00:31:25=28,768 
80 FRAArmand AudaireFRAWest07:59:42  +  00:31:25=28,768 
81 FRANoel LajoieFRACenter-South West08:03:09  +  00:34:52=28,563 
82 FRAAntonin CanaveseFRASouth-East08:05:45  +  00:37:28=28,410 
83 BELMarcel HendrickxBELBelgium08:06:12  +  00:37:55=28,383 
84 ALGMarcel MolinesNAFNorth Africa08:08:13  +  00:39:56=28,266 
85 NEDFrans VosNLDHolland08:08:29  +  00:40:12=28,251 
86 BELEduard Van EndeBELBelgium08:17:59  +  00:49:42=27,712 
87 BELMaurice BlommeBELBelgium08:43:53  +  01:15:36=26,342 

Withdrawls: 6
 
Rider
Team
Reason
12  BELHilaire CouvreurBELBelgiumDid not finish
43  NEDHenk de HoogNLDHollandDid not finish
46  NEDGerrit VoortingNLDHollandDid not finish
75  ITAGaliano PividoriFRAIle De France-North EastDid not finish
80  FRADaniel ThuayreFRAIle De France-North EastDid not finish
85  FRABasile DecortèsFRAWestDid not finish

Todays birthdays.

1876  Frédéric Rigaux
1896  Federico Gay
1901  Paul Delbart
1944  Jean-Pierre Ducasse
1948  Marc Lievens
1961  Willem Wijnant
1964  Miguel Indurain
1965  Gianni Faresin
1973  Stefano Garzelli
1982  André Greipel
1984  Alan Marangoni




Visits: